Regional Weather Roundup
Issued by NWS

Home | Current Version | Previous Version | Graphics & Text | Print | Product List | Glossary On
Versions: 1 2 3 4 5 6 7 8 9 10 11 12 13 14 15 16 17 18 19 20 21 22 23 24 25 26 27 28 29 30 31 32 33 34 35 36 37 38 39 40 41 42 43 44 45 46 47 48 49 50
000
ASUS44 KMEG 070400
RWRTN
TENNESSEE HOURLY STATE WEATHER ROUNDUP
NATIONAL WEATHER SERVICE MEMPHIS TN
1100 PM CDT MON JUL 06 2015

TNZ002-004-019-021-049-052-054-088>092-070500-
WEST TENNESSEE

CITY           SKY/WX    TMP DP  RH WIND       PRES   REMARKS
MEMPHIS INTL   MOCLDY    79  73  82 S9        30.04R
NWS MEMPHIS      N/A     78 N/A N/A MISG        N/A
JACKSON        CLEAR     76  72  87 S7        30.04S
DYERSBURG        N/A    N/A N/A N/A MISG        N/A  THUNDER
PARIS          CLEAR     75  72  88 S8        30.05S
LEXINGTON      CLEAR     75  72  88 S3        30.06S
$$

TNZ008-025-027-028-033-062-065-066-070500-
NORTH MIDDLE TENNESSEE

CITY           SKY/WX    TMP DP  RH WIND       PRES   REMARKS
NASHVILLE      PTCLDY    76  73  91 S3        30.08R
CLARKSVILLE    CLEAR     78  73  84 SW9       30.04S
COOKEVILLE     CLEAR     72  72 100 CALM      30.11R
CROSSVILLE     CLEAR     71  66  84 CALM      30.16R
$$

TNZ061-075-076-078-094-096-097-070500-
SOUTH MIDDLE TENNESSEE

CITY           SKY/WX    TMP DP  RH WIND       PRES   REMARKS
FAYETTEVILLE     N/A     73  72  94 S3        30.13R
TULLAHOMA      CLEAR     73  70  88 CALM      30.13S
WINCHESTER     CLEAR     72  70  94 CALM      30.13R
SHELBYVILLE    CLEAR     75  72  88 S5          N/A
$$

TNZ017-018-042-046-047-070500-
NORTHEAST TENNESSEE

CITY           SKY/WX    TMP DP  RH WIND       PRES   REMARKS
TRI CITIES     CLEAR     68  66  93 CALM      30.14R
ELIZABETHTON   CLEAR     64  63  94 NE5       30.15S FOG
$$

TNZ012-013-036-069-073-074-070500-
CENTRAL EAST TENNESSEE

CITY           SKY/WX    TMP DP  RH WIND       PRES   REMARKS
KNOXVILLE      CLEAR     74  69  85 SW7       30.11R
OAK RIDGE      CLEAR     73  69  87 CALM      30.12R
GATLINBURG     CLEAR     70  66  88 CALM      30.11S
$$

TNZ083-085-099-070500-
SOUTHEAST TENNESSEE

CITY           SKY/WX    TMP DP  RH WIND       PRES   REMARKS
CHATTANOOGA    CLEAR     76  70  82 S3        30.12R
$$

SKY/WX REPORTED AS FAIR MEANS FEW OR NO CLOUDS BELOW
12 THOUSAND FEET.



USA.gov is the U.S. government's official web portal to all federal, state and local government web resources and services.